Homer, AK

3:20 PM AKDT on April 20, 2018 (GMT -0800)
Homer

Weather History for PAHO - July, 2013

Change the Weather History Date:

Saturday, July 20, 2013

  Actual Average Record
Temperature  
Mean Temperature 56 °F -  
Max Temperature 64 °F 61 °F 73 °F (1936)
Min Temperature 48 °F 48 °F 38 °F (1953)
Degree Days  
Heating Degree Days 10    
Growing Degree Days 6 (Base 50)    
Moisture  
Dew Point 48 °F    
Average Humidity 75    
Maximum Humidity 89    
Minimum Humidity 60    
Precipitation  
Precipitation 0.00 in - - ()
Sea Level Pressure  
Sea Level Pressure 30.17 in    
Wind  
Wind Speed 6 mph (SW)    
Max Wind Speed 16 mph    
Max Gust Speed 17 mph    
Visibility 10 miles    
Events      
Averages and records for this station are not official NWS values.
T = Trace of Precipitation, MM = Missing Value Source: NWS Daily Summary

Daily Weather History Graph

Daily Weather History Graph

Search for Another Location

Airport or City:

Astronomy

Jul. 20, 2013 Rise Set
Actual Time 5:23 AM AKDT 10:59 PM AKDT
Civil Twilight 4:14 AM AKDT 12:07 AM AKDT
Nautical Twilight 2:44 AM AKDT 1:39 AM AKDT
Astronomical Twilight Sun does not set Sun does not set
Moon 9:05 PM AKDT 3:17 AM AKDT
Length of Visible Light 19h 53m
Length of Day
17h 35m
Waxing Gibbous, 94% of the Moon is Illuminated
Jul 20
Waxing Gibbous
Jul 22
Full
Jul 29
Last Quarter
Aug 6
New
Aug 14
First Quarter

Hourly Weather History & Observations

Time (AKDT) Temp. Dew Point Humidity Pressure Visibility Wind Dir Wind Speed Gust Speed Precip Events Conditions
12:53 AM 55.9 °F 48.9 °F 77% 30.22 in 10.0 mi Variable 3.5 mph - N/A   Clear
1:53 AM 55.0 °F 48.9 °F 80% 30.21 in 10.0 mi Calm Calm - N/A   Clear
2:53 AM 51.1 °F 46.0 °F 83% 30.21 in 10.0 mi Calm Calm - N/A   Clear
3:53 AM 54.0 °F 48.0 °F 80% 30.20 in 10.0 mi North - - N/A   Clear
4:53 AM 52.0 °F 46.9 °F 83% 30.19 in 10.0 mi Variable 3.5 mph - N/A   Clear
5:53 AM 48.0 °F 45.0 °F 89% 30.20 in 10.0 mi Calm Calm - N/A   Clear
6:19 AM 51.8 °F 46.4 °F 82% 30.20 in 10.0 mi Variable 3.5 mph - N/A   Mostly Cloudy
6:41 AM 53.6 °F 48.2 °F 82% 30.20 in 10.0 mi SW 5.8 mph - N/A   Scattered Clouds
6:53 AM 54.0 °F 48.9 °F 83% 30.20 in 10.0 mi WSW 3.5 mph - N/A   Scattered Clouds
7:53 AM 55.0 °F 48.9 °F 80% 30.20 in 10.0 mi SW 5.8 mph - N/A   Clear
8:12 AM 55.4 °F 50.0 °F 82% 30.20 in 10.0 mi SW 6.9 mph - N/A   Mostly Cloudy
8:23 AM 55.4 °F 48.2 °F 77% 30.20 in 10.0 mi SW 8.1 mph - N/A   Mostly Cloudy
8:44 AM 55.4 °F 48.2 °F 77% 30.20 in 10.0 mi WSW 10.4 mph - N/A   Scattered Clouds
8:53 AM 55.9 °F 48.9 °F 77% 30.20 in 10.0 mi WSW 11.5 mph - N/A   Partly Cloudy
9:53 AM 57.0 °F 48.9 °F 74% 30.19 in 10.0 mi WSW 10.4 mph 17.3 mph N/A   Clear
10:53 AM 57.9 °F 50.0 °F 75% 30.19 in 10.0 mi SW 10.4 mph - N/A   Clear
11:53 AM 59.0 °F 50.0 °F 72% 30.19 in 10.0 mi SW 12.7 mph - N/A   Clear
12:53 PM 60.1 °F 50.0 °F 69% 30.19 in 10.0 mi SSW 13.8 mph - N/A   Mostly Cloudy
1:53 PM 59.0 °F 50.0 °F 72% 30.18 in 10.0 mi SSW 13.8 mph - N/A   Mostly Cloudy
2:53 PM 60.1 °F 48.9 °F 67% 30.17 in 10.0 mi SW 15.0 mph - N/A   Mostly Cloudy
3:53 PM 59.0 °F 48.9 °F 69% 30.16 in 10.0 mi SW 13.8 mph - N/A   Scattered Clouds
4:53 PM 60.1 °F 48.9 °F 67% 30.15 in 10.0 mi SW 11.5 mph - N/A   Scattered Clouds
5:53 PM 63.0 °F 48.9 °F 60% 30.13 in 10.0 mi SW 12.7 mph - N/A   Scattered Clouds
6:53 PM 62.1 °F 48.9 °F 62% 30.13 in 10.0 mi SW 16.1 mph - N/A   Scattered Clouds
7:53 PM 60.1 °F 48.9 °F 67% 30.12 in 10.0 mi SW 15.0 mph - N/A   Scattered Clouds
8:53 PM 60.1 °F 48.0 °F 64% 30.11 in 10.0 mi SW 9.2 mph - N/A   Scattered Clouds
9:53 PM 57.0 °F 48.0 °F 72% 30.11 in 10.0 mi SSW 4.6 mph - N/A   Clear
10:53 PM 54.0 °F 48.0 °F 80% 30.11 in 10.0 mi WSW 3.5 mph - N/A   Clear
11:53 PM 52.0 °F 46.0 °F 80% 30.11 in 10.0 mi Calm Calm - N/A   Clear